Tracking 29892 objects as of 21-Nov-2024
HD Live streaming from Space Station
objects crossing your sky now

NOAA 16 DEB

Track NOAA 16 DEB now!
10-day predictions


NORAD ID: 41275
Int'l Code: 2000-055GB
Perigee: 813.9 km
Apogee: 842.8 km
Inclination: 98.7 °
Period: 101.3 minutes
Semi major axis: 7199 km
RCS: Unknown
Launch date: September 21, 2000
Source: United States (US)
Launch site: AIR FORCE WESTERN TEST RANGE (AFWTR)

Note: This is SATELLITE DEBRIS
Your satellite tracking list
Your tracking list is empty




NASA's NSSDC Master Catalog

Two Line Element Set (TLE):
1 41275U 00055GB  24323.36887283  .00004730  00000-0  21870-2 0  9992
2 41275  98.7038  12.5318 0020045  40.2174 320.0482 14.21226561459226
Source of the keplerian elements: AFSPC